2022/12/24 00:00:00,59.8,-3.1
2022/12/24 00:10:00,59.6,-2.8
2022/12/24 00:20:00,59.2,-3.2
2022/12/24 00:30:00,58.9,-3.4
2022/12/24 00:40:00,58.6,-3.1
2022/12/24 00:50:00,58.3,-3.1
2022/12/24 01:00:00,58.1,-3.3
2022/12/24 01:10:00,57.8,-3.5
2022/12/24 01:20:00,57.4,-3.6
2022/12/24 01:30:00,56.9,-4.0
2022/12/24 01:40:00,56.6,-3.9
2022/12/24 01:50:00,56.1,-4.0
2022/12/24 02:00:00,55.8,-3.8
2022/12/24 02:10:00,55.8,-3.4
2022/12/24 02:20:00,55.7,-3.2
2022/12/24 02:30:00,55.5,-3.1
2022/12/24 02:40:00,55.6,-2.6
2022/12/24 02:50:00,55.5,-2.8
2022/12/24 03:00:00,55.2,-2.9
2022/12/24 03:10:00,54.9,-2.6
2022/12/24 03:20:00,54.8,-2.6
2022/12/24 03:30:00,54.7,-2.9
2022/12/24 03:40:00,54.6,-2.8
2022/12/24 03:50:00,54.0,-2.6
2022/12/24 04:00:00,53.7,-2.6
2022/12/24 04:10:00,53.6,-2.8
2022/12/24 04:20:00,53.5,-2.7
2022/12/24 04:30:00,53.2,-2.7
2022/12/24 04:40:00,52.8,-2.7
2022/12/24 04:50:00,52.7,-2.4
2022/12/24 05:00:00,52.7,-2.5
2022/12/24 05:10:00,52.4,-2.3
2022/12/24 05:20:00,52.3,-2.4
2022/12/24 05:30:00,52.2,-2.3
2022/12/24 05:40:00,52.2,-2.1
2022/12/24 05:50:00,52.4,-2.1
2022/12/24 06:00:00,52.5,-2.0
2022/12/24 06:10:00,52.6,-2.3
2022/12/24 06:20:00,52.8,-2.1
2022/12/24 06:30:00,53.3,-2.1
2022/12/24 06:40:00,53.5,-1.7
2022/12/24 06:50:00,54.0,-1.7
2022/12/24 07:00:00,55.0,-1.5
2022/12/24 07:10:00,55.0,-1.5
2022/12/24 07:20:00,55.2,-1.2
2022/12/24 07:30:00,55.3,-1.4
2022/12/24 07:40:00,55.1,-1.7
2022/12/24 07:50:00,55.3,-1.2
2022/12/24 08:00:00,55.3,-1.2
2022/12/24 08:10:00,55.2,-0.9
2022/12/24 08:20:00,55.0,-1.1
2022/12/24 08:30:00,54.8,-1.0
2022/12/24 08:40:00,54.8,-0.4
2022/12/24 08:50:00,54.8,-0.8
2022/12/24 09:00:00,55.0,-0.3
2022/12/24 09:10:00,55.1,-0.7
2022/12/24 09:20:00,55.1, 0.0
2022/12/24 09:30:00,55.2,-0.2
2022/12/24 09:40:00,55.2,-0.2
2022/12/24 09:50:00,55.2, 0.0
2022/12/24 10:00:00,55.2, 0.4
2022/12/24 10:10:00,55.1, 0.0
2022/12/24 10:20:00,54.8, 0.1
2022/12/24 10:30:00,55.0, 0.5
2022/12/24 10:40:00,55.1, 0.5
2022/12/24 10:50:00,54.7, 0.8
2022/12/24 11:00:00,54.5, 0.5
2022/12/24 11:10:00,54.2, 1.0
2022/12/24 11:20:00,53.9, 2.7
2022/12/24 11:30:00,53.7, 2.3
2022/12/24 11:40:00,54.2, 0.9
2022/12/24 11:50:00,56.7, 0.9
2022/12/24 12:00:00,56.3, 0.8
2022/12/24 12:10:00,55.6, 0.9
2022/12/24 12:20:00,55.5, 0.8
2022/12/24 12:30:00,55.1, 0.6
2022/12/24 12:40:00,55.0, 0.6
2022/12/24 12:50:00,54.5, 0.7
2022/12/24 13:00:00,54.3, 0.2
2022/12/24 13:10:00,54.0, 0.7
2022/12/24 13:20:00,53.8, 0.2
2022/12/24 13:30:00,53.7, 0.9
2022/12/24 13:40:00,53.4, 0.2
2022/12/24 13:50:00,53.2, 0.4
2022/12/24 14:00:00,52.9, 0.5
2022/12/24 14:10:00,52.7, 0.3
2022/12/24 14:20:00,52.3, 0.2
2022/12/24 14:30:00,52.0, 0.2
2022/12/24 14:40:00,51.9, 0.4
2022/12/24 14:50:00,51.7, 0.4
2022/12/24 15:00:00,51.3, 0.6
2022/12/24 15:10:00,50.9, 0.5
2022/12/24 15:20:00,50.4, 0.9
2022/12/24 15:30:00,50.2, 0.4
2022/12/24 15:40:00,50.1, 0.2
2022/12/24 15:50:00,49.7,-0.1
2022/12/24 16:00:00,49.6,-0.2
2022/12/24 16:10:00,49.4,-0.1
2022/12/24 16:20:00,49.3,-0.1
2022/12/24 16:30:00,49.1,-0.2
2022/12/24 16:40:00,48.8,-0.4
2022/12/24 16:50:00,48.8,-0.2
2022/12/24 17:00:00,48.6,-0.5
2022/12/24 17:10:00,48.4,-0.7
2022/12/24 17:20:00,48.0,-0.1
2022/12/24 17:30:00,47.5, 0.0
2022/12/24 17:40:00,47.2,-0.2
2022/12/24 17:50:00,47.2,-0.1
2022/12/24 18:00:00,47.4,-0.1
2022/12/24 18:10:00,47.3,-0.2
2022/12/24 18:20:00,47.0, 0.0
2022/12/24 18:30:00,46.7,-0.3
2022/12/24 18:40:00,46.5,-0.4
2022/12/24 18:50:00,46.4,-0.4
2022/12/24 19:00:00,46.3,-0.4
2022/12/24 19:10:00,46.3,-0.5
2022/12/24 19:20:00,46.1,-0.3
2022/12/24 19:30:00,45.9,-0.5
2022/12/24 19:40:00,45.7,-0.4
2022/12/24 19:50:00,45.5,-0.4
2022/12/24 20:00:00,45.4,-0.3
2022/12/24 20:10:00,45.3, 0.8
2022/12/24 20:20:00,45.2, 0.0
2022/12/24 20:30:00,45.2, 0.4
2022/12/24 20:40:00,45.2, 0.0
2022/12/24 20:50:00,44.9,-0.4
2022/12/24 21:00:00,44.7,-0.1
2022/12/24 21:10:00,44.5,-0.2
2022/12/24 21:20:00,44.3,-0.3
2022/12/24 21:30:00,44.2,-0.1
2022/12/24 21:40:00,44.1,-0.2
2022/12/24 21:50:00,44.0,-0.3
2022/12/24 22:00:00,43.8,-0.1
2022/12/24 22:10:00,43.6,-0.2
2022/12/24 22:20:00,43.4,-0.2
2022/12/24 22:30:00,43.2,-0.8
2022/12/24 22:40:00,43.0,-0.3
2022/12/24 22:50:00,43.0,-0.4
2022/12/24 23:00:00,42.9, 0.0
2022/12/24 23:10:00,42.8,-0.4
2022/12/24 23:20:00,42.7,-0.3
2022/12/24 23:30:00,42.5,-0.6
2022/12/24 23:40:00,42.2,-0.4
2022/12/24 23:50:00,41.9,-0.5
